Weather History for Norfolk, NE

Change the Weather History Date:

Monday, January 12, 2015

  Actual Average Record
Temperature  
Mean Temperature 3 °F 22 °F  
Max Temperature 16 °F 33 °F 63 °F (1928)
Min Temperature -11 °F 12 °F -39 °F (1912)
Degree Days  
Heating Degree Days 62 43  
Month to date heating degree days 641 516  
Since 1 July heating degree days 3270 3222  
Cooling Degree Days 0 0  
Month to date cooling degree days 0 0  
Year to date cooling degree days 0 0  
Moisture  
Dew Point -3 °F    
Average Humidity 75    
Maximum Humidity 87    
Minimum Humidity 63    
Precipitation  
Precipitation 0.00 in 0.02 in 0.30 in (1910)
Month to date precipitation 0.25 0.22  
Year to date precipitation 0.25 0.22  
Snow  
Snow 0.00 in 0.20 in - ()
Month to date snowfall 3.7 2.3  
Since 1 July snowfall 13.3 13.2  
Snow Depth 2.00 in    
Sea Level Pressure  
Sea Level Pressure 30.75 in    
Wind  
Wind Speed 9 mph (North)    
Max Wind Speed 20 mph    
Max Gust Speed 23 mph    
Visibility 10 miles    
Events      
T = Trace of Precipitation, MM = Missing Value Source: NWS Daily Summary

Daily Weather History Graph

Daily Weather History Graph

Search for Another Location

Airport:

Trip Planner

Search our weather history database for the weather conditions in past years. The results will help you decide how hot, cold, wet, or windy it might be!

Date:

Astronomy

Jan. 12, 2015 Rise Set
Actual Time 7:56 AM CST 5:19 PM CST
Civil Twilight 7:25 AM CST 5:50 PM CST
Nautical Twilight 6:50 AM CST 6:25 PM CST
Astronomical Twilight 6:17 AM CST 6:59 PM CST
Moon No Moon Rise 11:35 AM CST (1/12)
Length of Visible Light 10h 25m
Length of Day
9h 23m
Waning Gibbous, 56% of the Moon is Illuminated
Jan 12
Waning Gibbous
Jan 13
Last Quarter
Jan 20
New
Jan 26
First Quarter
Feb 3
Full

Hourly Weather History & Observations

Time (CST) Temp. Windchill Dew Point Humidity Pressure Visibility Wind Dir Wind Speed Gust Speed Precip Events Conditions
12:56 AM 15.1 °F 1.1 °F 8.1 °F 74% 30.53 in 10.0 mi NNW 12.7 mph - N/A   Overcast
1:56 AM 15.1 °F -0.6 °F 7.0 °F 70% 30.56 in 10.0 mi NNW 16.1 mph - N/A   Overcast
2:56 AM 12.9 °F -1.6 °F 5.0 °F 71% 30.60 in 10.0 mi NNW 12.7 mph - N/A   Clear
3:56 AM 10.9 °F -0.8 °F 3.9 °F 73% 30.62 in 10.0 mi NNW 8.1 mph - N/A   Clear
4:56 AM 10.0 °F -6.5 °F 3.9 °F 76% 30.63 in 10.0 mi NNW 15.0 mph - N/A   Clear
5:56 AM 8.1 °F -7.0 °F 1.9 °F 76% 30.67 in 10.0 mi NNW 11.5 mph - N/A   Clear
6:56 AM 5.0 °F -10.8 °F -0.0 °F 80% 30.71 in 10.0 mi NNW 11.5 mph - N/A   Clear
7:56 AM 1.9 °F -11.8 °F -2.9 °F 80% 30.74 in 10.0 mi NW 8.1 mph - N/A   Clear
8:56 AM 1.9 °F -9.2 °F -5.1 °F 72% 30.78 in 10.0 mi NNW 5.8 mph - N/A   Clear
9:56 AM 3.9 °F -13.7 °F -5.1 °F 66% 30.80 in 10.0 mi NNW 13.8 mph - N/A   Clear
10:56 AM 5.0 °F -11.6 °F -4.0 °F 66% 30.82 in 10.0 mi North 12.7 mph - N/A   Clear
11:56 AM 7.0 °F -8.3 °F -4.0 °F 61% 30.81 in 10.0 mi North 11.5 mph - N/A   Clear
12:56 PM 9.0 °F -5.1 °F -2.0 °F 61% 30.78 in 10.0 mi NNW 10.4 mph - N/A   Clear
1:56 PM 9.0 °F -5.1 °F -2.0 °F 61% 30.77 in 10.0 mi NNW 10.4 mph - N/A   Clear
2:56 PM 9.0 °F -4.2 °F -2.0 °F 61% 30.77 in 10.0 mi North 9.2 mph - N/A   Clear
3:56 PM 9.0 °F -5.1 °F -2.0 °F 61% 30.78 in 10.0 mi North 10.4 mph - N/A   Clear
4:56 PM 7.0 °F -6.6 °F -4.0 °F 61% 30.79 in 10.0 mi NNW 9.2 mph - N/A   Clear
5:56 PM 3.9 °F -9.4 °F -5.1 °F 66% 30.80 in 10.0 mi NNE 8.1 mph - N/A   Clear
6:56 PM 1.9 °F -5.6 °F -5.1 °F 72% 30.80 in 10.0 mi NNE 3.5 mph - N/A   Clear
7:56 PM 1.9 °F -5.6 °F -5.1 °F 72% 30.82 in 10.0 mi ENE 3.5 mph - N/A   Clear
8:56 PM -2.9 °F -11.2 °F -7.1 °F 82% 30.82 in 10.0 mi ENE 3.5 mph - N/A   Clear
9:56 PM -2.9 °F - -8.0 °F 79% 30.82 in 10.0 mi Calm Calm - N/A   Clear
10:56 PM -9.9 °F - -13.0 °F 86% 30.83 in 10.0 mi Calm Calm - N/A   Clear
11:56 PM -11.0 °F - -16.1 °F 78% 30.81 in 10.0 mi Calm Calm - N/A   Clear